Regional Weather Roundup
Issued by NWS

Home | Current Version | Previous Version | Graphics & Text | Print | Product List | Glossary On
Versions: 1 2 3 4 5 6 7 8 9 10 11 12 13 14 15 16 17 18 19 20 21 22 23 24 25 26 27 28 29 30 31 32 33 34 35 36 37 38 39 40 41 42 43 44 45 46 47 48 49 50
000
ASUS43 KLOT 230502
RWRIL

ILLINOIS REGIONAL WEATHER ROUNDUP
NATIONAL WEATHER SERVICE CHICAGO/ROMEOVILLE IL
1200 AM CDT SAT MAY 23 2015

NOTE: "FAIR" INDICATES FEW OR NO CLOUDS BELOW 12,000 FEET WITH NO
SIGNIFICANT WEATHER AND/OR OBSTRUCTIONS TO VISIBILITY.

* THESE STATIONS ARE NOT UNDER NWS QUALITY CONTROL. THEY ALSO MAY NOT
  REPORT WEATHER SUCH AS PRECIPITATION OR FOG.

ILZ001-002-007-009-015-016-024-230600-
NORTHWEST ILLINOIS

CITY           SKY/WX    TMP DP  RH WIND       PRES   REMARKS
MOLINE         CLOUDY    59  47  64 E6        30.22S
STERLING*      CLOUDY    59  36  41 E9        30.26S
$$

ILZ003-004-008-010-011-017-018-230600-
NORTH CENTRAL ILLINOIS

CITY           SKY/WX    TMP DP  RH WIND       PRES   REMARKS
ROCKFORD       CLOUDY    54  32  43 SE6       30.30S
FREEPORT*      CLOUDY    54  37  52 E3        30.29R
$$

ILZ005-006-012>014-019>023-230600-
NORTHEAST ILLINOIS

CITY           SKY/WX    TMP DP  RH WIND       PRES   REMARKS
CHICAGO-OHARE  MOCLDY    53  32  44 E8        30.29S
CHICAGO-MIDWAY MOCLDY    56  35  45 E6        30.29S
AURORA         MOCLDY    52  31  44 E3        30.29S
WAUKEGAN       CLOUDY    48  31  51 SE3       30.29S
DUPAGE AIRPORT MOCLDY    52  31  44 E3        30.28S
WHEELING       MOCLDY    47  35  63 CALM      30.31F
NORTHERLY ISL    N/A     52  40  63 NE5         N/A
$$

LMZ740>746-230600-
SOUTHERN LAKE MICHIGAN

STATION/POSITION SKY/WX   TEMP    WIND        PRES    VSBY  WAVE
                          AIR SEA DIR/SP/G                  HT/PER
                          (F)     (DEG/KT/KT) (MB)    (MI)  (FT/S)
SOUTHERN BUOY              43 38  160/  8/  8 1026.3F         0
HARRISON CRIB              51     120/  6/  7   N/A
BURNHAM HARBOR             52      60/  4/  6   N/A
CALUMET HARBOR             53      40/  6/  8   N/A
BURNS HARBOR               55      70/  5/  6 1026.4R
MICHIGAN CITY              54      50/  4/  5   N/A
MICHIGAN CITY 6N           53 51  120/  4/  4   N/A           2/ 3
ST. JOSEPH                 55 53  110/  6/  6   N/A           1/ 3
$$

ILZ025>027-034>036-040-047-049-050-058-095>099-230600-
WEST-CENTRAL ILLINOIS

CITY           SKY/WX    TMP DP  RH WIND       PRES   REMARKS
QUINCY         MOCLDY    61  52  72 N3        30.23F
MACOMB*        MOCLDY    62  54  76 SW7       30.27R
$$

ILZ028>032-037-038-041>044-048-051>054-059>061-230600-
CENTRAL ILLINOIS

CITY           SKY/WX    TMP DP  RH WIND       PRES   REMARKS
DECATUR        CLOUDY    63  49  60 W6        30.26R
PEORIA         CLOUDY    65  46  50 CALM      30.24S
LINCOLN*       CLOUDY    67  50  55 CALM      30.23S
SPRINGFIELD    CLOUDY    66  53  63 SW3       30.25S
TAYLORVILLE    NOT AVBL
$$

ILZ033-039-045-046-055>057-062-063-230600-
EAST-CENTRAL ILLINOIS

CITY           SKY/WX    TMP DP  RH WIND       PRES   REMARKS
CHAMPAIGN      CLOUDY    64  41  42 E9        30.26F
MATTOON        CLOUDY    65  49  56 SW6       30.25S
$$

ILZ079-100>102-230600-
SOUTHWEST ILLINOIS

CITY           SKY/WX    TMP DP  RH WIND       PRES   REMARKS
ALTON          CLOUDY    61  60  96 CALM      30.25F
BELLEVILLE     MOCLDY    61  58  90 CALM      30.24F
CAHOKIA*       CLOUDY    64  56  75 CALM      30.24F
SPARTA*        MOCLDY    61  55  79 CALM      30.27S
$$

ILZ064>066-069>071-074>076-080>082-084>086-088>090-092>094-230600-
SOUTH-CENTRAL ILLINOIS

CITY           SKY/WX    TMP DP  RH WIND       PRES   REMARKS
CARBONDALE     MOCLDY    59  55  87 CALM      30.26F
MT. VERNON     MOCLDY    54  48  82 CALM      30.28S
SALEM*         PTCLDY    63  54  72 CALM      30.27S
$$

ILZ067-068-072-073-078-083-087-091-230600-
SOUTHEAST ILLINOIS

CITY           SKY/WX    TMP DP  RH WIND       PRES   REMARKS
LAWRENCEVILLE  CLOUDY    61  54  77 SE5       30.28S
HARRISBURG*    MOCLDY    58  57  97 CALM      30.29S
ROBINSON*      CLOUDY    61  54  77 SE5       30.28S
$$

ABBREVIATIONS USED IN REMARKS
   TC - TEMPERATURE IN CELSIUS
  WCI - WIND CHILL INDEX
   HX - HEAT INDEX
  VSB - VISIBILITY
$$



USA.gov is the U.S. government's official web portal to all federal, state and local government web resources and services.